Location: Chèvreville
(49.1099°N, 2.8495°E)
Time: 09:08:32
(UTC+00:00)

Cosmos 407 Rocket - Pass Details

Date: 28 January 2023
Orbit: 742 x 785 km, 74.0° (Epoch: 22 March)

Event Time Altitude Azimuth Distance (km) Brightness Sun altitude
Rises 19:21:14 0° 221° (SW) 3,198 7.2 -26.5°
Reaches altitude 10° 19:23:42 10° 228° (SW) 2,272 6.5 -26.9°
Maximum altitude 19:28:37 45° 300° (WNW) 1,024 4.4 -27.8°
Enters shadow 19:31:06 26° 357° (N) 1,448 4.9 -28.2°
